IRIS

Last updated on Thu Jul 03 2025 00:03:31 GMT+0000 (Coordinated Universal Time)

1 39197U 13033A 25183.52355540 .00000893 00000+0 11168-3 0 9996 2 39197 97.9514 18.7617 0025557 24.9928 335.2518 14.84623319648471
UTC large
Height (km)
Speed (km/s)
/
Latitude / Longitude
Inclination (degrees)
Orbital Period (minutes)
Azimuth
Elevation
Range (km)
Doppler Factor

Next 0 passes for location: London (51.5072 / 0.1276)

Sorry there are no passes over London.